User: anonymous   Login
Location: Unspecified
(0.0000°N, 0.0000°E)
Time: 20:26:13
(UTC+00:00)
Language:

Explorer 11/Cluster Stage 4 - Orbit

View from above orbital plane
View from above orbital plane
View from above satellite
View from above satellite

Ground track
Ground track

The orbit data is extracted from the following two-line orbital elements,

1   107U 61013A   18109.90275860 +.00000633 +00000-0 +67970-4 0  9990
2   107 028.7872 319.2699 0548246 078.8365 287.3314 14.08554893854797
Epoch (UTC): 19 April 2018 21:39:58
Eccentricity: 0.0548246
inclination: 28.7872°
perigee height: 467 km
apogee height: 1261 km
right ascension of ascending node: 319.2699°
argument of perigee: 78.8365°
revolutions per day: 14.08554893
mean anomaly at epoch: 287.3314°
orbit number at epoch: 85479

The dashed part of the orbit path shows where the satellite is in the earth's shadow,  

DLR